DW2431 Weather Reports


time (UTC)temp
C
wind
direction
speed
KPH
gust
KPH
rain 1hr
cm
rain 24hr
cm
rain mn
cm
humidity
%
barometer
mb
20181219074526 4 123 12.9 22.5 0.00 0.91 0.43 87 983.4
20181219073034 4 94 12.9 24.1 0.00 0.91 0.43 87 983.0
20181219071525 4 125 16.1 30.6 0.00 0.91 0.43 87 982.6
20181219070018 4 107 17.7 33.8 0.00 0.91 0.43 88 982.4
20181219064529 5 115 12.9 33.8 0.00 0.91 0.43 87 982.1
20181219063023 5 123 19.3 30.6 0.00 0.91 0.43 88 981.7
20181219061512 5 119 19.3 33.8 0.03 0.91 0.43 89 981.5
20181219060005 5 132 19.3 33.8 0.03 0.91 0.43 90 981.2
20181219054502 5 138 22.5 40.2 0.08 0.99 0.43 91 980.9
20181219053314 5 121 20.9 35.4 0.20 0.99 0.43 92 980.7
20181219051651 5 141 19.3 40.2 0.23 0.97 0.43 92 980.5
20181219050124 5 142 25.7 49.9 0.30 0.97 0.43 93 980.3
20181219044653 4 140 22.5 41.8 0.25 0.89 0.36 92 980.0
20181219043149 5 140 30.6 46.7 0.18 0.79 0.23 92 980.0
20181219041629 5 161 24.1 40.2 0.13 0.71 0.18 93 979.5
20181219040119 5 146 20.9 38.6 0.08 0.66 0.13 92 979.1
20181219034642 5 162 25.7 38.6 0.05 0.64 0.10 92 978.9
20181219033115 5 144 20.9 32.2 0.03 0.61 0.05 93 978.7
20181219031625 5 157 20.9 40.2 0.03 0.61 0.05 92 978.5
20181219030144 5 157 16.1 35.4 0.03 0.58 0.05 92 978.2
20181219024623 5 168 24.1 40.2 0.03 0.61 0.05 92 977.9
20181219023057 5 166 24.1 37.0 0.03 0.61 0.05 93 977.5
20181219021615 5 159 25.7 37.0 0.03 0.61 0.05 93 977.3
20181219020053 5 175 24.1 46.7 0.00 0.61 0.03 92 977.0
20181219014602 4 202 29.0 41.8 0.03 0.66 0.03 93 976.7
20181219013056 4 163 17.7 45.1 0.03 0.66 0.03 93 976.2
20181219011535 4 183 24.1 40.2 0.03 0.66 0.03 93 976.0
20181219010033 4 166 24.1 38.6 0.03 0.66 0.03 93 975.9
20181219004522 4 177 25.7 48.3 0.00 0.76 0.00 93 975.2
20181219003021 4 153 22.5 38.6 0.00 0.76 0.00 93 974.8
20181219001508 3 171 22.5 40.2 0.00 0.76 0.00 93 974.6
20181219000006 3 140 12.9 19.3 0.00 0.76 0.00 93 974.7
20181218234517 3 136 16.1 29.0 0.00 0.89 0.76 93 974.6
20181218231655 2 154 6.4 16.1 0.03 0.89 0.76 93 974.1
20181218230121 2 157 8.0 12.9 0.03 0.89 0.76 93 973.8
20181218224620 2 157 6.4 11.3 0.05 0.91 0.76 93 973.4
20181218223144 2 157 8.0 12.9 0.05 0.89 0.71 93 973.1
20181218221736 2 157 9.7 16.1 0.08 0.89 0.71 92 972.9
20181218220130 2 173 6.4 11.3 0.13 0.89 0.71 92 972.7
20181218214637 3 178 8.0 14.5 0.13 0.89 0.71 92 972.7
20181218213242 3 178 6.4 11.3 0.15 0.86 0.71 92 972.6
20181218211708 3 180 6.4 14.5 0.15 0.81 0.66 92 972.7
20181218210212 3 184 8.0 12.9 0.15 0.79 0.61 91 972.7
20181218204635 3 185 4.8 9.7 0.13 0.76 0.61 91 972.6
20181218203128 3 185 4.8 9.7 0.13 0.71 0.56 91 972.6
20181218201643 4 192 6.4 11.3 0.10 0.69 0.51 90 972.7
20181218200149 4 203 6.4 11.3 0.08 0.64 0.48 89 972.7
20181218194641 5 259 4.8 9.7 0.08 0.64 0.48 87 972.8
20181218193109 5 355 0.0 0.0 0.05 0.61 0.43 87 972.9
20181218191547 5 355 0.0 12.9 0.03 0.58 0.43 86 973.1
20181218190124 5 13 9.7 14.5 0.00 0.56 0.41 86 973.2
20181218184556 5 26 6.4 16.1 0.00 0.56 0.41 86 973.4
20181218183058 5 24 11.3 17.7 0.03 0.56 0.41 87 973.6
20181218181546 5 13 6.4 12.9 0.05 0.56 0.41 87 973.8
20181218180117 5 12 0.0 4.8 0.05 0.56 0.41 87 974.2
20181218174656 5 22 6.4 19.3 0.05 0.56 0.41 86 974.4
20181218173049 5 49 14.5 27.4 0.03 0.53 0.38 85 974.8
20181218171541 5 34 17.7 27.4 0.00 0.51 0.36 85 975.2
20181218170044 5 63 8.0 19.3 0.00 0.51 0.36 83 975.3
20181218164611 6 50 20.9 29.0 0.00 0.51 0.36 81 975.4
20181218163042 6 34 17.7 27.4 0.00 0.51 0.36 81 976.0
20181218161538 6 76 4.8 8.0 0.00 0.51 0.36 82 976.2
20181218160024 6 81 0.0 0.0 0.00 0.51 0.36 82 976.3
20181218154550 6 81 0.0 4.8 0.00 0.51 0.36 82 976.4
20181218153030 6 64 3.2 8.0 0.00 0.51 0.36 83 976.7
20181218151530 6 19 0.0 3.2 0.00 0.51 0.36 83 977.2
20181218150024 6 14 0.0 4.8 0.00 0.51 0.36 82 977.7
20181218144559 6 57 6.4 14.5 0.00 0.51 0.36 82 978.0
20181218143042 6 94 12.9 19.3 0.00 0.51 0.36 83 977.8
20181218141531 6 74 6.4 16.1 0.00 0.51 0.36 84 978.4
20181218140019 6 88 4.8 14.5 0.00 0.51 0.36 85 978.5
20181218134526 6 94 6.4 11.3 0.00 0.51 0.36 86 979.1
20181218133017 6 92 0.0 11.3 0.00 0.51 0.36 86 979.3
20181218131512 6 112 8.0 16.1 0.00 0.51 0.36 87 979.2
20181218130011 6 116 16.1 30.6 0.00 0.51 0.36 87 979.3
20181218124523 6 122 12.9 20.9 0.00 0.51 0.36 88 979.4
20181218123015 6 108 11.3 20.9 0.00 0.51 0.36 88 979.6
20181218121531 6 94 11.3 19.3 0.00 0.51 0.36 88 979.6
20181218120011 5 107 8.0 16.1 0.00 0.51 0.36 88 979.6
20181218114503 5 123 8.0 14.5 0.00 0.51 0.36 87 979.8
20181218113002 6 94 8.0 14.5 0.00 0.51 0.36 86 979.7
20181218110242 5 80 11.3 24.1 0.00 0.51 0.36 86 979.5
20181218104651 5 88 11.3 22.5 0.00 0.51 0.36 86 979.5
20181218103208 6 98 16.1 25.7 0.00 0.51 0.36 86 979.5
20181218101646 6 106 11.3 25.7 0.00 0.51 0.36 87 979.1
20181218100132 5 119 11.3 24.1 0.00 0.51 0.36 88 979.1
20181218094643 5 115 14.5 24.1 0.00 0.51 0.36 88 979.0
20181218093134 5 105 9.7 20.9 0.00 0.51 0.36 88 979.0
20181218090142 5 96 8.0 29.0 0.00 0.51 0.36 89 978.6
20181218084642 5 101 11.3 25.7 0.00 0.51 0.36 89 978.3
20181218083106 5 128 8.0 22.5 0.03 0.51 0.36 90 978.0
20181218081614 5 110 14.5 24.1 0.05 0.51 0.36 90 977.8
20181218080107 5 88 8.0 22.5 0.08 0.51 0.36 90 977.5